{"data":{"norad_id":60059,"epoch":"2026-09-20T20:42:50.709888Z","epoch_age_seconds":146214,"freshness":"FRESH","line1":"1 60059U 24113A   26263.86308692 -.00000321  00000+0  22071-5 0  9995","line2":"2 60059  53.1593 309.2080 0001093  71.6160 288.4976 15.69709915130217","mean_motion":15.69709915,"eccentricity":0.0001093,"inclination_deg":53.1593,"raan_deg":309.208,"arg_perigee_deg":71.616,"mean_anomaly_deg":288.4976,"bstar":2.2071e-6,"rev_number":13021,"period_min":91.736695184218,"perigee_km":358.99054512275,"apogee_km":360.46344219176,"semimajor_km":6737.8639936573,"source":"CELESTRAK","updated_at":"2026-09-22T09:00:49.145942Z"}}